Woodward, OK

12:37 AM CST on February 07, 2016 (GMT -0600)
West Woodward

Weather History for KWWR - February, 2013

Change the Weather History Date:

Friday, February 8, 2013

  Actual Average (KGAG) Record (KGAG)
Temperature  
Mean Temperature 42 °F -  
Max Temperature 57 °F 50 °F 78 °F (1957)
Min Temperature 28 °F 21 °F 1 °F (2011)
Degree Days  
Heating Degree Days 22    
Moisture  
Dew Point 22 °F    
Average Humidity 50    
Maximum Humidity 80    
Minimum Humidity 21    
Precipitation  
Precipitation 0.00 in - - ()
Sea Level Pressure  
Sea Level Pressure 30.20 in    
Wind  
Wind Speed 7 mph (SSE)    
Max Wind Speed 16 mph    
Max Gust Speed 22 mph    
Visibility 10 miles    
Events      
Averages and records for this station are not official NWS values.
T = Trace of Precipitation, MM = Missing Value Source: NWS Daily Summary

Daily Weather History Graph

Daily Weather History Graph

Search for Another Location

Airport or City:

Trip Planner

Search our weather history database for the weather conditions in past years. The results will help you decide how hot, cold, wet, or windy it might be!

Date:

Astronomy

Feb. 08, 2013 Rise Set
Actual Time 7:33 AM CST 6:12 PM CST
Civil Twilight 7:06 AM CST 6:38 PM CST
Nautical Twilight 6:35 AM CST 7:09 PM CST
Astronomical Twilight 6:05 AM CST 7:39 PM CST
Moon 6:01 AM CST (2/8) 4:48 PM CST (2/8)
Length of Visible Light 11h 32m
Length of Day
10h 39m
Waning Crescent, 3% of the Moon is Illuminated
Feb 8
Waning Crescent
Feb 10
New
Feb 17
First Quarter
Feb 25
Full
Mar 4
Last Quarter

Hourly Weather History & Observations

Time (CST) Temp. Windchill Dew Point Humidity Pressure Visibility Wind Dir Wind Speed Gust Speed Precip Events Conditions
12:15 AM 37.4 °F 34.9 °F 26.6 °F 65% 30.24 in 10.0 mi ESE 3.5 mph - N/A   Clear
12:35 AM 33.8 °F - 26.6 °F 75% 30.24 in 10.0 mi Calm Calm - N/A   Clear
12:55 AM 37.4 °F - 26.6 °F 65% 30.25 in 10.0 mi Calm Calm - N/A   Clear
1:15 AM 32.0 °F - 23.0 °F 69% 30.25 in 10.0 mi Calm Calm - N/A   Clear
1:35 AM 30.2 °F 26.7 °F 23.0 °F 75% 30.25 in 10.0 mi SW 3.5 mph - N/A   Clear
1:55 AM 30.2 °F 22.6 °F 23.0 °F 75% 30.25 in 10.0 mi SW 8.1 mph - N/A   Clear
2:15 AM 30.2 °F 21.3 °F 23.0 °F 75% 30.26 in 10.0 mi SSW 10.4 mph - N/A   Clear
2:35 AM 30.2 °F 21.9 °F 23.0 °F 75% 30.26 in 10.0 mi SW 9.2 mph - N/A   Clear
2:55 AM 30.2 °F 21.9 °F 23.0 °F 75% 30.26 in 10.0 mi SSW 9.2 mph - N/A   Clear
3:35 AM 32.0 °F 24.2 °F 24.8 °F 75% 30.26 in 10.0 mi SW 9.2 mph - N/A   Clear
3:55 AM 32.0 °F 25.6 °F 24.8 °F 75% 30.25 in 10.0 mi SSW 6.9 mph - N/A   Clear
4:15 AM 30.2 °F 22.6 °F 23.0 °F 75% 30.25 in 10.0 mi SW 8.1 mph - N/A   Clear
4:35 AM 32.0 °F 25.6 °F 24.8 °F 75% 30.26 in 10.0 mi SSW 6.9 mph - N/A   Clear
4:55 AM 32.0 °F 25.6 °F 24.8 °F 75% 30.26 in 10.0 mi SW 6.9 mph - N/A   Clear
5:15 AM 30.2 °F 22.6 °F 23.0 °F 75% 30.26 in 10.0 mi SW 8.1 mph - N/A   Clear
5:35 AM 28.4 °F 20.4 °F 23.0 °F 80% 30.26 in 10.0 mi SW 8.1 mph - N/A   Clear
5:55 AM 30.2 °F 22.6 °F 23.0 °F 75% 30.26 in 10.0 mi SW 8.1 mph - N/A   Clear
6:15 AM 28.4 °F 22.2 °F 23.0 °F 80% 30.26 in 10.0 mi SSW 5.8 mph - N/A   Clear
6:35 AM 28.4 °F 21.2 °F 23.0 °F 80% 30.25 in 10.0 mi SSW 6.9 mph - N/A   Clear
6:55 AM 30.2 °F 24.3 °F 23.0 °F 75% 30.26 in 10.0 mi South 5.8 mph - N/A   Clear
7:15 AM 28.4 °F 20.4 °F 23.0 °F 80% 30.26 in 10.0 mi SW 8.1 mph - N/A   Clear
7:35 AM 28.4 °F 21.2 °F 23.0 °F 80% 30.26 in 10.0 mi SSE 6.9 mph - N/A   Clear
7:55 AM 28.4 °F 21.2 °F 23.0 °F 80% 30.26 in 10.0 mi South 6.9 mph - N/A   Clear
8:15 AM 28.4 °F 22.2 °F 23.0 °F 80% 30.26 in 10.0 mi South 5.8 mph - N/A   Clear
8:35 AM 32.0 °F 26.4 °F 24.8 °F 75% 30.27 in 10.0 mi SW 5.8 mph - N/A   Clear
8:55 AM 32.0 °F 25.6 °F 26.6 °F 80% 30.28 in 10.0 mi WSW 6.9 mph - N/A   Clear
9:15 AM 35.6 °F 28.6 °F 26.6 °F 70% 30.29 in 10.0 mi SW 9.2 mph - N/A   Clear
9:35 AM 37.4 °F 32.1 °F 26.6 °F 65% 30.29 in 10.0 mi SW 6.9 mph - N/A   Clear
9:55 AM 41.0 °F 38.0 °F 28.4 °F 61% 30.28 in 10.0 mi SSW 4.6 mph - N/A   Clear
10:15 AM 46.4 °F 43.5 °F 28.4 °F 50% 30.29 in 10.0 mi SSW 5.8 mph - N/A   Clear
10:35 AM 50.0 °F - 23.0 °F 35% 30.27 in 10.0 mi SE 8.1 mph - N/A   Clear
10:55 AM 50.0 °F - 23.0 °F 35% 30.28 in 10.0 mi SSE 10.4 mph - N/A   Clear
11:15 AM 50.0 °F - 21.2 °F 32% 30.28 in 10.0 mi SE 10.4 mph - N/A   Clear
11:35 AM 51.8 °F - 21.2 °F 30% 30.28 in 10.0 mi SSE 11.5 mph - N/A   Clear
11:55 AM 51.8 °F - 19.4 °F 28% 30.26 in 10.0 mi SSE 12.7 mph - N/A   Clear
12:15 PM 53.6 °F - 21.2 °F 28% 30.27 in 10.0 mi SE 10.4 mph - N/A   Clear
12:35 PM 53.6 °F - 21.2 °F 28% 30.25 in 10.0 mi SSE 10.4 mph - N/A   Clear
12:55 PM 53.6 °F - 19.4 °F 26% 30.25 in 10.0 mi SSE 13.8 mph - N/A   Clear
1:15 PM 53.6 °F - 19.4 °F 26% 30.23 in 10.0 mi SSE 12.7 mph - N/A   Clear
1:35 PM 53.6 °F - 19.4 °F 26% 30.21 in 10.0 mi SSE 13.8 mph - N/A   Clear
1:55 PM 53.6 °F - 19.4 °F 26% 30.20 in 10.0 mi SSE 12.7 mph - N/A   Clear
2:15 PM 55.4 °F - 19.4 °F 25% 30.19 in 10.0 mi SSE 12.7 mph 20.7 mph N/A   Clear
2:35 PM 55.4 °F - 15.8 °F 21% 30.18 in 10.0 mi South 12.7 mph 17.3 mph N/A   Clear
2:55 PM 57.2 °F - 17.6 °F 21% 30.18 in 10.0 mi SSE 15.0 mph 18.4 mph N/A   Clear
3:15 PM 57.2 °F - 17.6 °F 21% 30.16 in 10.0 mi SE 11.5 mph 18.4 mph N/A   Clear
3:35 PM 55.4 °F - 15.8 °F 21% 30.16 in 10.0 mi SSE 16.1 mph 21.9 mph N/A   Clear
3:55 PM 55.4 °F - 17.6 °F 23% 30.16 in 10.0 mi SSE 13.8 mph - N/A   Clear
4:15 PM 53.6 °F - 17.6 °F 24% 30.14 in 10.0 mi SSE 11.5 mph - N/A   Clear
4:35 PM 53.6 °F - 17.6 °F 24% 30.13 in 10.0 mi SSE 13.8 mph - N/A   Clear
4:55 PM 53.6 °F - 17.6 °F 24% 30.12 in 10.0 mi SE 13.8 mph - N/A   Clear
5:15 PM 51.8 °F - 17.6 °F 26% 30.11 in 10.0 mi SE 11.5 mph - N/A   Clear
5:35 PM 51.8 °F - 15.8 °F 24% 30.11 in 10.0 mi SE 12.7 mph 18.4 mph N/A   Clear
5:55 PM 50.0 °F - 15.8 °F 26% 30.11 in 10.0 mi SE 10.4 mph - N/A   Clear
6:15 PM 48.2 °F - 15.8 °F 27% 30.10 in 10.0 mi SE 8.1 mph - N/A   Clear
6:35 PM 44.6 °F 40.2 °F 17.6 °F 34% 30.10 in 10.0 mi SE 8.1 mph - N/A   Clear
6:55 PM 44.6 °F 40.2 °F 17.6 °F 34% 30.10 in 10.0 mi SE 8.1 mph - N/A   Clear
7:15 PM 44.6 °F 40.7 °F 15.8 °F 31% 30.10 in 10.0 mi SSE 6.9 mph - N/A   Clear
7:35 PM 44.6 °F 41.4 °F 17.6 °F 34% 30.11 in 10.0 mi ESE 5.8 mph - N/A   Clear
7:55 PM 42.8 °F 37.5 °F 17.6 °F 36% 30.10 in 10.0 mi SE 9.2 mph - N/A   Clear
8:15 PM 42.8 °F 37.5 °F 19.4 °F 39% 30.10 in 10.0 mi SE 9.2 mph - N/A   Clear
8:35 PM 42.8 °F 37.5 °F 21.2 °F 42% 30.10 in 10.0 mi SE 9.2 mph - N/A   Clear
8:55 PM 42.8 °F 37.5 °F 21.2 °F 42% 30.10 in 10.0 mi SE 9.2 mph - N/A   Clear
9:15 PM 42.8 °F 36.2 °F 23.0 °F 46% 30.10 in 10.0 mi SE 12.7 mph - N/A   Clear
9:35 PM 42.8 °F 37.0 °F 23.0 °F 46% 30.10 in 10.0 mi SE 10.4 mph - N/A   Clear
9:55 PM 41.0 °F 35.2 °F 23.0 °F 49% 30.09 in 10.0 mi SE 9.2 mph - N/A   Clear
10:15 PM 41.0 °F 35.8 °F 23.0 °F 49% 30.10 in 10.0 mi ESE 8.1 mph - N/A   Clear
10:35 PM 41.0 °F 34.7 °F 24.8 °F 53% 30.09 in 10.0 mi SE 10.4 mph - N/A   Clear
10:55 PM 42.8 °F 36.6 °F 24.8 °F 49% 30.09 in 10.0 mi SSE 11.5 mph - N/A   Clear
11:15 PM 41.0 °F 33.5 °F 24.8 °F 53% 30.09 in 10.0 mi SSE 13.8 mph - N/A   Clear
11:35 PM 41.0 °F 33.5 °F 26.6 °F 57% 30.08 in 10.0 mi SSE 13.8 mph 18.4 mph N/A   Clear
11:55 PM 42.8 °F 35.4 °F 26.6 °F 53% 30.07 in 10.0 mi SSE 15.0 mph 19.6 mph N/A   Clear